TimeEST,TemperatureF,Dew PointF,Humidity,Sea Level PressureIn,VisibilityMPH,Wind Direction,Wind SpeedMPH,Gust SpeedMPH,PrecipitationIn,Events,Conditions,WindDirDegrees,DateUTC
12:52 AM,28.0,24.1,85,30.17,8.0,Calm,Calm,-,N/A,,Overcast,0,2013-01-03 05:52:00
2:52 AM,27.0,23.0,85,30.16,10.0,Calm,Calm,-,N/A,,Overcast,0,2013-01-03 07:52:00
3:52 AM,27.0,23.0,85,30.15,10.0,Calm,Calm,-,N/A,,Overcast,0,2013-01-03 08:52:00
4:52 AM,27.0,24.1,89,30.15,9.0,WNW,3.5,-,N/A,,Overcast,290,2013-01-03 09:52:00
5:19 AM,26.6,23.0,86,30.09,7.0,WNW,3.5,-,N/A,,Overcast,290,2013-01-03 10:19:00
5:52 AM,27.0,23.0,85,30.17,6.0,WSW,5.8,-,N/A,,Overcast,240,2013-01-03 10:52:00
6:52 AM,26.1,23.0,88,30.20,6.0,NW,6.9,-,N/A,,Overcast,320,2013-01-03 11:52:00
7:47 AM,26.6,23.0,86,30.14,10.0,WNW,3.5,-,N/A,,Overcast,290,2013-01-03 12:47:00
7:52 AM,26.1,21.9,84,30.21,10.0,Variable,3.5,-,N/A,,Overcast,0,2013-01-03 12:52:00
8:52 AM,26.1,21.0,81,30.21,10.0,WNW,3.5,-,N/A,,Overcast,290,2013-01-03 13:52:00
9:52 AM,27.0,21.0,78,30.22,10.0,West,5.8,-,N/A,,Scattered Clouds,260,2013-01-03 14:52:00
10:06 AM,26.6,21.2,80,30.16,10.0,West,5.8,-,N/A,,Mostly Cloudy,270,2013-01-03 15:06:00
10:47 AM,28.4,21.2,74,30.16,10.0,West,6.9,-,N/A,,Scattered Clouds,270,2013-01-03 15:47:00
10:52 AM,28.0,21.0,75,30.23,10.0,West,6.9,-,N/A,,Partly Cloudy,260,2013-01-03 15:52:00
11:52 AM,30.0,21.0,69,30.20,10.0,West,8.1,-,N/A,,Clear,270,2013-01-03 16:52:00
12:52 PM,30.0,19.0,64,30.19,10.0,West,6.9,-,N/A,,Clear,280,2013-01-03 17:52:00
1:52 PM,30.9,16.0,54,30.18,10.0,West,8.1,-,N/A,,Clear,280,2013-01-03 18:52:00
2:52 PM,34.0,19.9,56,30.17,10.0,West,8.1,-,N/A,,Clear,280,2013-01-03 19:52:00
3:52 PM,34.0,18.0,52,30.20,10.0,West,10.4,-,N/A,,Clear,280,2013-01-03 20:52:00
4:52 PM,33.1,19.0,56,30.22,10.0,West,8.1,-,N/A,,Clear,280,2013-01-03 21:52:00
5:52 PM,30.9,19.0,61,30.23,10.0,West,4.6,-,N/A,,Clear,280,2013-01-03 22:52:00
6:52 PM,30.0,19.0,64,30.25,10.0,WNW,3.5,-,N/A,,Clear,290,2013-01-03 23:52:00
7:52 PM,28.9,18.0,64,30.26,10.0,West,6.9,-,N/A,,Clear,280,2013-01-04 00:52:00
8:52 PM,28.0,19.0,69,30.26,10.0,West,4.6,-,N/A,,Clear,280,2013-01-04 01:52:00
9:52 PM,28.0,19.0,69,30.26,10.0,West,6.9,-,N/A,,Clear,280,2013-01-04 02:52:00
10:52 PM,28.0,19.0,69,30.27,10.0,West,8.1,-,N/A,,Clear,270,2013-01-04 03:52:00
11:52 PM,27.0,18.0,69,30.27,10.0,West,8.1,-,N/A,,Clear,280,2013-01-04 04:52:00